Карточка аэропорта UWKE

Внимание!
Информация на этой странице в стадии наполнения.
Если вы не увидели какой-то информации, или заметили неточность - пожалуйста сообщите нам!
Спасибо!
Команда RU-STAFF
Название аэропортаБегишево
Название аэропорта (англ.)Begishevo
Превышение643 ft. (196 m.)
Координаты55°33.882', 52°5.5500000000001'
Высота перехода700m
Эшелон переходаQFE>=742mm:FL040; QFE<742=>715:FL050; QFE<715:FL060
Коды ответчика1000
Зона ОрВДСамара РПИ (UWWW)
Данные METARUWKE 130530Z 02005MPS 9999 -SHRA BKN013CB 12/11 Q1013 R03/190060 NOSIG RMK QFE743/0991
Проноз погоды (TAF)UWKE 130454Z 1306/1406 02005G12MPS 9999 BKN040 TEMPO 1306/1309 03009G16MPS 6000 -TSRA BKN005 BKN016CB TEMPO 1309/1315 6000 -SHRA BKN016CB
NOTAMshow/hide NOTAM
AWOS   TABLE

Информация о ВПП

ВПП Длина ВПП (м.) Покрытие Курс ВПП Частота ILS
032502Асфальтобетон34 
212502Асфальтобетон214109.9

Диспетчерские позиции

Позывной Наименование органа УВД Частота
UWKE_R_APPБегишево-Круг127.900
UWKE_TWRБегишево-Вышка121.200



Спутниковое изображение